Fargo, ND

12:30 AM CDT on July 21, 2017 (GMT -0500)
Hector International

Weather History for KFAR - February, 2013

Change the Weather History Date:

Sunday, February 10, 2013

  Actual Average Record
Temperature  
Mean Temperature 28 °F 13 °F  
Max Temperature 31 °F 22 °F 46 °F (2017)
Min Temperature 25 °F 3 °F -29 °F (1899)
Degree Days  
Heating Degree Days 37 52  
Month to date heating degree days 522 535  
Since 1 July heating degree days 5655 5803  
Cooling Degree Days 0 0  
Month to date cooling degree days 0 0  
Year to date cooling degree days 0 0  
Moisture  
Dew Point 25 °F    
Average Humidity 88    
Maximum Humidity 92    
Minimum Humidity 84    
Precipitation  
Precipitation 0.89 in 0.02 in 0.89 in (2013)
Month to date precipitation 1.02 0.17  
Year to date precipitation 1.99 0.87  
Snow  
Snow 9.30 in 0.20 in 9.30 in (2013)
Month to date snowfall 11.8 2.3  
Since 1 July snowfall 34.5 33.3  
Snow Depth 7.00 in    
Sea Level Pressure  
Sea Level Pressure 29.66 in    
Wind  
Wind Speed 21 mph (NNE)    
Max Wind Speed 33 mph    
Max Gust Speed 40 mph    
Visibility 1 miles    
Events Fog , Snow    
T = Trace of Precipitation, MM = Missing Value Source: NWS Daily Summary

Daily Weather History Graph

Daily Weather History Graph

Search for Another Location

Airport or City:

Trip Planner

Search our weather history database for the weather conditions in past years. The results will help you decide how hot, cold, wet, or windy it might be!

Date:

Astronomy

Feb. 10, 2013 Rise Set
Actual Time 7:38 AM CST 5:44 PM CST
Civil Twilight 7:07 AM CST 6:16 PM CST
Nautical Twilight 6:31 AM CST 6:52 PM CST
Astronomical Twilight 5:56 AM CST 7:27 PM CST
Moon 7:24 AM CST (2/10) 6:43 PM CST (2/10)
Length of Visible Light 11h 09m
Length of Day
10h 05m
New Moon, 0% of the Moon is Illuminated
Feb 10
New Moon
Feb 17
First Quarter
Feb 25
Full
Mar 4
Last Quarter
Mar 11
New

Hourly Weather History & Observations

Time (CST) Temp. Windchill Dew Point Humidity Pressure Visibility Wind Dir Wind Speed Gust Speed Precip Events Conditions
12:53 AM 30.0 °F 23.2 °F 26.1 °F 85% 29.86 in 6.0 mi East 6.9 mph - N/A   Overcast
1:46 AM 30.2 °F 22.6 °F 26.6 °F 86% 29.80 in 6.0 mi East 8.1 mph - N/A   Overcast
1:53 AM 30.0 °F 22.4 °F 27.0 °F 88% 29.83 in 5.0 mi East 8.1 mph - N/A   Overcast
2:10 AM 30.2 °F 21.3 °F 26.6 °F 86% 29.78 in 2.0 mi ENE 10.4 mph - N/A   Overcast
2:29 AM 30.2 °F 20.8 °F 26.6 °F 86% 29.79 in 1.8 mi East 11.5 mph - 0.00 in Snow Light Snow
2:53 AM 30.0 °F 20.5 °F 27.0 °F 88% 29.83 in 0.5 mi East 11.5 mph - 0.04 in Fog , Snow Snow
3:43 AM 30.2 °F 21.3 °F 26.6 °F 86% 29.76 in 0.8 mi ENE 10.4 mph - 0.07 in Snow Light Snow
3:53 AM 30.0 °F 20.5 °F 27.0 °F 88% 29.79 in 1.0 mi ENE 11.5 mph - 0.08 in Snow Light Snow
4:06 AM 30.2 °F 21.3 °F 26.6 °F 86% 29.74 in 1.0 mi ENE 10.4 mph - 0.00 in Snow Light Snow
4:19 AM 30.2 °F 20.8 °F 26.6 °F 86% 29.74 in 1.2 mi ENE 11.5 mph - 0.01 in Snow Light Snow
4:53 AM 30.0 °F 22.4 °F 27.0 °F 88% 29.77 in 2.0 mi ENE 8.1 mph - 0.02 in Snow Light Snow
5:06 AM 30.2 °F 21.9 °F 26.6 °F 86% 29.74 in 4.0 mi ENE 9.2 mph - 0.00 in Snow Light Snow
5:53 AM 30.0 °F 21.1 °F 26.1 °F 85% 29.75 in 8.0 mi ENE 10.4 mph - 0.00 in   Overcast
6:18 AM 30.2 °F 21.3 °F 26.6 °F 86% 29.72 in 1.8 mi ENE 10.4 mph - 0.00 in Snow Light Snow
6:53 AM 30.0 °F 21.7 °F 26.1 °F 85% 29.75 in 1.8 mi NE 9.2 mph - 0.03 in Snow Light Snow
6:59 AM 30.2 °F 21.3 °F 26.6 °F 86% 29.71 in 0.8 mi NE 10.4 mph - 0.00 in Snow Light Snow
7:21 AM 30.2 °F 19.8 °F 26.6 °F 86% 29.70 in 0.5 mi NE 13.8 mph - 0.03 in Fog , Snow Snow
7:48 AM 30.2 °F 19.3 °F 26.6 °F 86% 29.68 in 1.0 mi NNE 15.0 mph - 0.09 in Snow Light Snow
7:53 AM 30.0 °F 19.1 °F 26.1 °F 85% 29.72 in 1.0 mi NE 15.0 mph - 0.09 in Snow Light Snow
8:09 AM 30.2 °F 18.5 °F 26.6 °F 86% 29.67 in 2.0 mi NNE 17.3 mph - 0.00 in Snow Light Snow
8:45 AM 30.2 °F 19.3 °F 26.6 °F 86% 29.67 in 3.0 mi NNE 15.0 mph - 0.00 in Snow Light Snow
8:53 AM 30.0 °F 19.1 °F 26.1 °F 85% 29.71 in 3.0 mi NNE 15.0 mph - 0.00 in Snow Light Snow
9:09 AM 30.2 °F 18.9 °F 26.6 °F 86% 29.67 in 1.8 mi NNE 16.1 mph - 0.00 in Snow Light Snow
9:53 AM 30.0 °F 17.9 °F 26.1 °F 85% 29.68 in 1.0 mi NNE 18.4 mph - 0.00 in Snow Light Snow
10:26 AM 30.2 °F 18.5 °F 26.6 °F 86% 29.66 in 1.0 mi NE 17.3 mph - 0.00 in Snow Light Snow
10:53 AM 28.9 °F 16.5 °F 25.0 °F 85% 29.67 in 0.8 mi NNE 18.4 mph - 0.01 in Snow Light Snow
11:10 AM 28.4 °F 15.4 °F 24.8 °F 86% 29.64 in 0.2 mi NNE 19.6 mph - 0.00 in Fog , Snow Snow
11:19 AM 28.4 °F 15.1 °F 24.8 °F 86% 29.64 in 0.5 mi NNE 20.7 mph - 0.01 in Fog , Snow Snow
11:27 AM 28.4 °F 15.4 °F 24.8 °F 86% 29.63 in 1.0 mi NNE 19.6 mph - 0.01 in Snow Light Snow
11:30 AM 28.4 °F 15.1 °F 24.8 °F 86% 29.63 in 0.8 mi NNE 20.7 mph - 0.01 in Snow Light Snow
11:43 AM 28.4 °F 15.1 °F 24.8 °F 86% 29.61 in 0.2 mi NNE 20.7 mph - 0.01 in Fog , Snow Snow
11:53 AM 28.9 °F 15.4 °F 25.0 °F 85% 29.64 in 0.2 mi NNE 21.9 mph - 0.02 in Fog , Snow Snow
12:15 PM 28.4 °F 14.7 °F 24.8 °F 86% 29.58 in 0.5 mi NNE 21.9 mph 31.1 mph 0.01 in Fog , Snow Snow
12:53 PM 28.9 °F 14.8 °F 25.0 °F 85% 29.57 in 0.5 mi NNE 24.2 mph 35.7 mph 0.02 in Fog , Snow Snow
1:34 PM 28.4 °F 14.4 °F 24.8 °F 86% 29.52 in 0.8 mi NNE 23.0 mph 33.4 mph 0.01 in Snow Light Snow
1:53 PM 28.9 °F 15.1 °F 25.0 °F 85% 29.55 in 0.5 mi NNE 23.0 mph 31.1 mph 0.01 in Fog , Snow Snow
2:07 PM 28.4 °F 14.7 °F 24.8 °F 86% 29.51 in 0.5 mi NNE 21.9 mph - 0.00 in Snow Snow
2:16 PM 28.4 °F 13.8 °F 24.8 °F 86% 29.51 in 0.5 mi NNE 25.3 mph 32.2 mph 0.00 in Fog , Snow Snow
2:18 PM 28.4 °F 14.4 °F 24.8 °F 86% 29.50 in 0.2 mi NNE 23.0 mph 32.2 mph 0.00 in Fog , Snow Heavy Snow
2:36 PM 28.4 °F 15.4 °F 24.8 °F 86% 29.50 in 0.2 mi NNE 19.6 mph 32.2 mph 0.01 in Fog Light Freezing Fog
2:53 PM 28.0 °F 13.9 °F 24.1 °F 85% 29.55 in 0.2 mi NNE 23.0 mph 29.9 mph 0.03 in Fog Light Freezing Fog
3:28 PM 28.4 °F 15.1 °F 24.8 °F 86% 29.53 in 0.2 mi NNE 20.7 mph 26.5 mph 0.04 in Fog Light Freezing Fog
3:44 PM 28.4 °F 15.1 °F 24.8 °F 86% 29.54 in 0.2 mi NNE 20.7 mph 28.8 mph 0.06 in Fog Light Freezing Fog
3:53 PM 28.0 °F 14.3 °F 24.1 °F 85% 29.58 in 0.2 mi North 21.9 mph - 0.08 in Fog Light Freezing Fog
4:53 PM 28.0 °F 14.3 °F 25.0 °F 88% 29.59 in 0.2 mi North 21.9 mph 28.8 mph 0.05 in Fog Light Freezing Fog
5:49 PM 28.4 °F 13.5 °F 24.8 °F 86% 29.56 in 0.5 mi North 26.5 mph 32.2 mph 0.01 in Fog Light Freezing Fog
5:53 PM 28.0 °F 13.6 °F 25.0 °F 88% 29.60 in 0.5 mi North 24.2 mph 32.2 mph 0.01 in Fog Light Freezing Fog
6:51 PM 28.4 °F 12.5 °F 24.8 °F 86% 29.58 in 0.8 mi North 31.1 mph 38.0 mph 0.02 in   Mist
6:53 PM 28.0 °F 12.8 °F 24.1 °F 85% 29.62 in 0.8 mi North 27.6 mph 38.0 mph 0.02 in   Mist
7:05 PM 26.6 °F 10.3 °F 24.8 °F 93% 29.58 in 0.5 mi North 29.9 mph 38.0 mph N/A Fog Light Freezing Fog
7:22 PM 26.6 °F 10.3 °F 24.8 °F 93% 29.59 in 0.8 mi North 29.9 mph 39.1 mph N/A   Mist
7:31 PM 28.4 °F 13.3 °F 24.8 °F 86% 29.59 in 0.8 mi North 27.6 mph 38.0 mph 0.01 in   Overcast
7:49 PM 26.6 °F 10.3 °F 24.8 °F 93% 29.60 in 0.5 mi North 29.9 mph 35.7 mph 0.01 in Fog Light Freezing Fog
7:53 PM 28.0 °F 11.5 °F 24.1 °F 85% 29.64 in 0.5 mi North 33.4 mph 39.1 mph 0.01 in Fog Light Freezing Fog
8:31 PM 26.6 °F 10.8 °F 24.8 °F 93% 29.61 in 0.8 mi North 27.6 mph 36.8 mph 0.01 in   Overcast
8:40 PM 26.6 °F 10.3 °F 24.8 °F 93% 29.61 in 1.0 mi North 29.9 mph 36.8 mph 0.01 in   Overcast
8:53 PM 27.0 °F 11.6 °F 24.1 °F 89% 29.65 in 1.0 mi North 26.5 mph 38.0 mph 0.01 in   Mist
9:07 PM 26.6 °F 10.0 °F 24.8 °F 93% 29.61 in 0.8 mi North 31.1 mph 36.8 mph N/A   Mist
9:30 PM 26.6 °F 9.8 °F 23.0 °F 86% 29.62 in 0.5 mi North 32.2 mph 39.1 mph 0.01 in Fog Light Freezing Fog
9:53 PM 27.0 °F 10.5 °F 23.0 °F 85% 29.66 in 0.8 mi North 31.1 mph 38.0 mph 0.01 in   Mist
10:01 PM 26.6 °F 10.3 °F 23.0 °F 86% 29.63 in 0.8 mi North 29.9 mph 38.0 mph N/A   Mist
10:48 PM 26.6 °F 10.6 °F 23.0 °F 86% 29.64 in 1.0 mi North 28.8 mph - N/A   Overcast
10:53 PM 27.0 °F 10.3 °F 23.0 °F 85% 29.68 in 0.8 mi North 32.2 mph 36.8 mph N/A   Overcast
11:08 PM 26.6 °F 10.0 °F 23.0 °F 86% 29.65 in 0.8 mi North 31.1 mph 36.8 mph N/A   Overcast
11:48 PM 26.6 °F 10.8 °F 21.2 °F 80% 29.67 in 1.0 mi North 27.6 mph 36.8 mph 0.01 in   Overcast
11:49 PM 26.1 °F 10.4 °F 21.9 °F 84% 29.71 in 1.0 mi North 26.5 mph 36.8 mph 0.01 in   Overcast